Theta_e
308 311 319 324 320 316 319 320 322 322 320 320 321 325 328 322 328 334 319 321 324 333 335 335 336 336 335 336 334 331 331 331 331 330 331 332 330 329 326 318 324 325 322 320 324 326 325 325 325
308 312 319 324 316 319 318 318 319 318 319 320 324 328 324 319 320 319 320 320 318 328 332 333 335 336 337 336 335 333 329 330 330 330 329 331 329 329 327 320 327 324 321 316 321 325 324 324 324
312 320 324 317 316 317 319 317 316 318 320 319 321 323 321 318 318 317 318 318 317 319 330 332 333 335 337 338 336 336 332 328 328 328 328 328 328 326 329 327 328 327 320 316 325 325 324 322 323
316 320 322 317 319 320 317 315 315 316 319 317 318 318 318 317 317 316 317 317 317 316 318 328 332 333 335 336 336 336 336 331 327 326 324 323 323 325 325 330 329 325 316 318 324 323 322 323 320
322 323 317 316 317 317 314 315 316 316 316 315 317 315 317 314 315 316 315 312 314 314 316 318 326 331 333 334 334 335 336 334 331 327 324 324 323 325 325 330 329 322 316 322 321 323 322 317 311
320 318 316 317 318 315 314 315 315 314 314 315 315 314 315 313 316 315 313 312 312 313 314 314 315 320 330 332 333 333 334 334 333 330 327 324 325 327 328 331 326 319 317 318 322 321 322 311 310
318 313 313 316 316 316 315 315 314 314 314 314 314 313 316 314 313 312 311 311 312 313 313 313 313 312 316 327 331 332 331 332 332 332 328 324 323 329 330 329 324 316 318 321 322 322 319 310 308
316 310 314 314 313 316 314 315 314 315 313 314 314 312 313 312 313 311 311 311 311 311 311 311 311 311 312 314 320 330 332 331 331 331 329 326 323 327 328 327 323 315 318 321 322 322 320 309 308
314 312 311 314 315 314 315 314 315 314 313 314 314 313 312 313 311 311 310 310 310 310 310 311 311 311 312 312 312 314 324 331 331 330 330 328 324 325 325 326 322 316 316 321 321 321 319 309 308
313 311 315 313 314 313 314 314 314 314 314 314 314 314 312 310 310 310 309 309 309 309 308 308 309 309 310 311 311 311 313 319 329 331 330 329 325 324 325 325 323 316 317 320 321 320 319 311 308
314 314 313 314 315 314 314 314 315 314 314 312 311 311 310 310 309 309 309 309 308 307 307 308 307 308 308 309 310 310 310 312 316 327 329 329 327 322 325 327 325 318 318 319 321 320 319 313 308
314 314 314 315 314 314 314 313 313 314 313 313 311 311 310 309 309 308 308 307 307 307 307 306 306 306 308 308 308 309 309 310 312 316 327 328 328 325 324 326 326 320 321 319 318 318 317 314 311
313 313 314 314 314 314 313 313 313 313 314 312 311 310 309 309 307 307 306 304 302 304 306 307 306 306 306 308 308 308 308 308 310 313 322 329 329 328 323 320 323 323 322 321 318 317 315 315 313
314 314 314 314 314 314 313 312 313 312 312 312 312 310 309 308 307 305 304 303 303 303 305 305 307 307 307 307 307 307 307 308 309 310 313 322 327 328 326 322 322 326 323 322 320 319 314 317 319
314 314 314 313 313 313 312 309 311 312 313 311 311 310 309 308 307 306 305 304 303 303 303 304 306 306 307 306 307 307 307 307 307 309 310 315 323 327 328 326 325 326 325 323 321 321 315 318 319
314 314 315 314 313 313 310 307 311 312 312 312 311 310 309 308 307 306 304 302 302 303 303 305 306 306 306 306 305 305 304 306 306 307 309 311 319 325 328 327 325 323 323 324 322 320 316 318 316
313 313 314 315 313 313 311 309 312 312 312 311 311 309 309 308 306 305 303 301 302 303 303 306 307 307 305 306 305 304 303 305 306 306 308 310 315 324 326 327 326 323 321 322 322 322 318 317 314
318 313 313 312 312 312 311 311 311 312 312 312 311 310 308 308 306 305 303 300 299 300 304 306 307 306 305 308 308 307 306 305 305 306 308 310 314 323 326 324 324 319 321 322 322 323 319 316 313
312 312 313 313 312 310 309 310 310 311 311 311 310 310 308 307 306 305 300 299 298 302 305 307 307 306 307 310 309 308 309 308 306 307 309 310 313 323 325 324 323 321 321 322 322 323 317 315 318
313 312 312 309 310 310 309 310 310 309 311 312 311 310 307 307 307 304 300 298 298 303 306 307 308 308 310 311 311 311 311 309 308 307 309 311 317 321 319 323 322 320 320 322 321 320 317 317 318
312 311 309 309 310 310 309 308 313 311 312 312 312 310 309 308 306 302 299 298 300 304 305 306 308 309 311 312 312 311 311 310 309 309 311 312 317 322 322 323 323 320 320 320 320 320 317 318 320
311 311 310 311 309 309 308 308 303 311 311 310 310 310 309 307 306 300 299 298 301 304 305 306 307 309 311 313 312 312 312 312 313 312 314 313 317 319 320 322 321 320 321 322 322 320 319 319 318
310 309 310 310 310 311 309 305 306 310 310 309 309 310 308 307 303 299 298 297 302 304 306 306 308 308 310 312 313 314 315 314 316 315 315 317 318 320 321 322 323 321 321 323 322 321 320 319 319
308 310 310 310 309 307 306 307 307 307 308 308 309 310 307 306 301 299 298 297 302 304 306 306 309 308 310 312 313 312 314 314 317 317 318 319 319 322 322 322 323 323 322 322 321 321 321 320 320
309 309 308 309 307 310 310 308 308 310 309 308 308 307 305 304 300 299 297 297 302 303 306 306 308 308 308 311 312 313 314 314 316 318 319 320 319 321 322 321 321 323 321 322 322 321 320 319 317
308 308 311 311 313 310 307 309 308 309 309 310 310 307 305 302 300 299 297 297 301 303 306 306 308 308 307 309 311 314 315 315 314 317 319 320 319 319 321 320 321 322 321 321 321 320 318 316 314
309 309 307 307 302 307 305 306 307 307 307 306 305 305 304 302 301 298 297 297 301 304 305 306 308 307 307 308 309 313 312 315 317 318 318 318 318 319 320 319 319 319 318 318 317 316 316 314 313
308 306 305 304 305 310 309 309 307 308 306 305 304 304 304 302 301 299 297 297 301 303 305 306 308 308 308 307 307 309 312 312 314 314 315 316 316 316 316 315 314 314 315 315 314 313 312 312 310
306 307 308 306 307 311 309 308 304 307 307 305 305 307 306 303 301 299 297 297 300 302 304 306 307 308 309 310 310 309 310 310 311 311 311 311 312 313 313 313 312 312 311 311 311 311 310 309 307
305 305 306 308 308 306 309 307 306 306 307 306 306 307 307 304 302 300 297 297 298 302 303 305 306 307 308 308 308 308 309 310 309 310 310 310 310 310 310 309 308 307 306 306 306 306 305 303 300
Wind_Speed
3 6 4 2 4 4 3 2 2 5 4 4 7 3 7 7 4 2 3 8 11 6 7 7 1 7 9 9 8 8 9 9 9 10 11 11 9 9 7 6 6 5 4 5 6 8 10 9 8
4 7 3 1 4 1 4 5 7 4 5 6 8 6 6 3 6 1 2 9 12 9 9 8 6 8 8 10 11 10 11 11 11 11 11 12 10 11 10 7 8 4 2 4 8 10 9 10 10
7 6 2 3 3 3 4 1 3 4 8 7 4 7 4 3 4 3 9 10 10 11 8 10 9 12 12 12 13 13 13 13 13 12 12 13 12 13 11 12 10 5 2 2 10 12 10 10 9
7 3 1 3 4 3 4 1 5 4 7 7 5 6 7 3 2 6 11 11 11 14 12 9 11 14 15 15 14 14 15 15 15 15 15 15 15 15 13 13 10 6 3 5 10 10 10 12 11
3 1 1 3 2 4 3 6 6 3 3 7 6 2 8 6 5 9 14 15 13 13 18 12 11 14 18 16 19 16 17 17 16 16 15 14 14 15 16 16 10 6 5 8 10 11 10 10 10
2 1 2 3 4 4 3 6 4 5 11 4 5 3 6 6 8 16 18 17 12 11 16 20 16 12 16 18 16 18 19 19 18 17 16 14 15 15 16 17 10 8 8 10 11 12 12 10 10
1 3 4 2 5 3 2 4 4 3 7 4 2 3 6 10 17 21 19 16 12 13 18 21 20 18 15 15 21 19 23 21 20 19 18 17 16 15 17 16 12 11 9 12 11 12 11 10 9
1 3 3 1 2 1 1 2 4 4 2 3 2 2 3 17 21 19 18 18 16 18 21 22 20 19 20 20 18 21 22 24 23 22 21 20 18 17 18 16 14 12 11 14 14 13 12 10 9
1 3 2 3 2 4 3 3 2 2 1 2 3 5 7 16 19 19 21 22 22 21 21 23 22 23 21 20 22 20 23 22 26 24 24 23 22 22 20 19 16 15 12 15 14 13 11 10 9
2 3 2 3 2 3 4 3 1 1 3 3 7 4 12 14 17 20 22 24 25 28 28 26 26 24 23 24 23 23 22 23 26 26 29 28 26 24 23 21 19 18 15 16 14 13 12 9 9
0 2 4 3 5 6 3 2 0 0 0 1 4 11 14 14 17 17 20 21 26 28 24 24 27 25 21 21 23 23 23 23 21 30 26 30 29 27 26 24 22 22 20 18 16 14 13 11 11
2 2 4 4 3 1 2 3 4 8 4 3 4 8 9 13 13 17 17 21 24 28 29 28 26 28 23 22 22 23 24 24 26 21 23 26 31 31 29 24 26 25 23 19 17 14 10 11 14
0 1 4 4 2 1 3 5 5 7 8 5 2 4 7 9 11 12 14 18 24 29 30 30 29 27 27 23 25 24 24 26 26 26 26 26 24 34 34 33 29 29 26 20 18 14 11 12 16
2 4 5 3 3 3 1 3 2 3 11 3 4 5 7 8 11 15 20 23 25 28 30 34 31 25 26 27 29 28 25 25 26 27 26 28 22 25 34 34 37 33 26 22 19 14 11 14 13
3 1 2 6 4 1 2 6 7 11 9 4 6 7 8 7 12 18 22 25 28 28 31 35 33 26 26 30 31 30 29 24 24 26 29 25 27 16 34 38 32 34 26 21 19 15 15 15 14
1 1 2 1 6 2 3 7 4 15 10 8 8 9 7 7 12 14 19 23 26 29 31 34 34 32 34 33 30 31 31 27 22 25 25 31 27 18 30 39 37 29 21 20 21 18 18 16 12
1 2 4 2 7 1 3 6 4 14 12 10 10 10 8 7 7 14 18 21 23 26 30 30 34 39 31 27 28 26 24 22 22 23 26 26 24 21 25 30 33 25 22 27 27 19 18 17 13
3 2 3 2 3 3 5 16 10 17 18 15 12 11 8 5 8 15 19 20 22 23 28 29 36 36 28 29 27 22 19 19 17 19 21 20 26 22 34 27 26 19 28 32 26 19 21 16 13
1 1 2 1 2 3 6 14 14 17 22 18 14 13 9 6 9 14 17 20 22 23 28 28 36 33 29 28 29 26 22 18 13 12 16 16 26 19 33 26 29 27 33 32 24 19 17 17 16
3 2 3 4 3 0 6 19 15 10 14 25 18 12 8 7 11 14 17 20 22 24 28 28 36 31 29 28 26 24 19 15 11 12 12 13 26 22 29 23 32 31 31 30 24 23 24 20 20
2 3 2 3 6 4 7 9 5 4 6 20 15 11 7 8 9 14 17 19 20 24 30 29 33 28 27 26 22 18 13 10 6 10 12 19 26 23 25 26 32 31 29 27 22 28 24 25 24
1 2 4 2 4 2 4 5 5 4 2 5 13 10 8 7 9 10 15 17 19 22 26 29 32 28 22 20 19 15 14 9 8 6 8 18 24 24 28 27 28 27 29 27 30 23 23 24 21
3 2 2 1 1 3 4 3 7 2 5 8 11 13 10 8 6 7 12 14 16 20 24 29 28 24 20 16 15 14 10 12 11 5 8 15 18 21 22 24 25 23 25 29 24 24 26 22 22
5 2 2 2 1 2 4 4 6 3 5 3 5 12 15 7 3 4 9 12 14 18 21 27 29 25 19 14 13 12 15 15 11 5 9 13 18 20 16 16 22 20 27 24 24 28 24 22 24
2 3 3 4 3 4 2 2 10 6 6 5 9 17 14 7 3 3 7 11 13 16 19 24 29 26 18 16 13 12 15 16 11 14 12 16 17 21 18 17 15 23 21 22 26 27 22 21 20
4 4 4 5 1 4 2 6 6 4 7 7 16 18 12 8 4 1 5 8 11 14 17 21 28 26 19 11 13 15 16 10 18 20 18 19 17 16 18 13 16 20 19 25 23 30 23 17 12
3 3 2 4 2 3 4 7 6 2 4 10 17 19 14 10 7 2 2 5 8 12 16 18 23 26 19 14 18 17 20 22 19 22 22 25 25 20 15 13 11 22 29 29 25 24 24 24 24
2 2 3 3 1 4 5 5 6 6 9 7 10 19 16 13 11 6 1 2 7 10 12 12 17 25 31 26 23 24 25 26 25 22 21 23 25 25 25 30 35 35 31 31 31 32 28 26 26
2 2 2 2 4 4 2 6 6 5 10 14 12 23 21 21 15 10 6 2 6 7 9 11 11 18 24 27 31 36 40 40 40 42 43 43 42 40 38 35 34 37 33 31 30 30 27 25 21
4 7 5 4 4 2 1 7 2 5 4 12 16 22 22 20 18 13 8 5 6 7 8 10 15 16 21 26 26 30 30 35 37 37 38 37 38 37 39 36 35 33 31 30 29 28 25 22 20
Wind_Direction
196 186 176 76 46 63 279 290 39 28 52 11 334 23 117 58 42 135 276 338 354 356 312 335 350 311 275 258 254 252 242 234 230 234 230 220 222 221 221 218 191 185 187 177 158 171 182 174 166
152 146 122 78 89 91 284 18 67 67 99 26 29 55 43 65 57 93 153 344 1 349 323 315 278 248 259 270 267 260 246 244 239 237 233 226 228 227 226 222 183 181 236 208 170 177 189 165 163
142 139 112 109 157 187 178 74 67 44 73 55 66 52 70 48 42 25 351 345 358 349 313 301 284 260 253 249 259 257 253 246 243 244 242 236 238 236 223 196 187 205 239 184 166 183 184 177 162
129 146 274 99 229 323 122 102 43 30 99 66 22 73 82 47 88 340 344 344 344 338 329 303 289 275 265 261 251 252 256 249 246 245 246 243 240 231 222 203 198 211 208 156 178 187 164 173 180
113 164 49 249 271 122 68 67 43 349 68 52 55 31 105 40 10 329 340 345 339 335 317 314 291 271 266 272 268 253 244 247 246 246 246 244 240 226 219 205 209 223 210 181 183 183 184 181 173
325 212 60 248 144 147 96 67 31 23 37 50 53 46 117 9 318 337 331 329 337 321 303 299 296 283 266 267 276 259 256 246 240 241 242 244 238 233 220 203 223 223 212 190 196 188 185 179 181
156 86 221 238 178 145 112 66 76 12 31 41 25 5 164 341 336 331 327 321 306 292 288 294 301 295 272 264 258 262 251 254 246 236 237 236 236 228 211 213 224 217 211 185 203 194 185 187 189
334 102 278 265 182 130 1 70 108 83 74 106 45 44 347 332 322 328 330 326 321 308 304 303 299 290 286 277 267 255 245 247 248 238 231 234 228 219 214 225 225 214 201 194 206 209 192 194 192
324 58 275 324 62 151 96 90 84 8 263 182 107 88 329 302 316 326 327 328 326 320 318 312 309 299 292 284 279 270 259 236 244 241 233 228 227 221 218 220 220 212 204 198 206 213 207 196 189
105 122 190 334 32 77 107 89 106 25 309 123 179 245 311 337 333 331 338 336 329 326 321 312 308 306 292 290 288 279 268 259 239 236 231 228 225 222 220 217 215 211 206 199 214 210 199 200 188
266 156 161 59 69 51 70 55 271 79 249 114 308 334 340 334 338 342 338 337 333 331 328 321 323 311 302 292 289 287 278 263 254 241 234 228 228 220 222 218 210 209 206 198 196 215 215 200 188
122 48 54 129 79 55 61 306 285 204 205 262 322 337 327 330 338 339 343 348 352 353 349 342 326 317 305 306 306 298 285 272 260 249 234 226 231 225 219 221 213 210 208 203 203 210 219 197 189
282 132 77 110 129 197 318 278 241 235 215 263 333 286 304 321 344 356 354 349 353 352 351 345 337 329 317 311 310 309 299 280 261 252 231 221 227 223 216 213 225 212 209 208 206 213 213 188 196
15 133 141 185 228 247 237 279 311 263 194 251 271 252 301 324 344 343 340 340 343 343 345 347 340 324 317 316 308 302 302 293 272 249 243 231 223 230 220 209 206 211 208 208 210 204 207 201 206
107 88 271 208 212 219 13 276 228 176 195 240 252 260 301 317 332 338 337 336 335 337 340 342 345 340 331 322 309 302 297 295 275 257 238 237 224 227 219 212 211 202 198 212 212 207 202 200 213
111 9 287 218 168 201 92 272 207 189 199 231 247 249 289 311 331 334 330 329 326 331 336 340 344 335 324 323 316 300 295 292 277 261 243 228 226 216 233 219 199 209 202 204 212 205 197 202 208
317 245 218 253 202 138 175 271 215 193 209 232 242 232 268 302 303 318 324 327 328 330 335 340 339 336 331 327 317 309 298 288 280 263 252 224 216 211 241 216 204 180 213 202 209 209 211 202 199
203 225 292 226 221 219 245 260 252 234 219 224 231 243 243 260 309 318 323 331 331 335 338 336 341 338 336 338 329 317 308 296 280 265 251 226 207 199 220 216 192 205 208 212 212 200 209 208 194
124 254 287 253 191 260 237 269 265 258 210 213 223 240 224 261 309 316 325 334 339 345 340 348 344 345 343 343 330 323 314 307 278 256 257 221 197 188 227 209 206 194 199 209 210 200 198 191 167
73 78 274 293 171 248 292 279 277 234 208 204 211 228 214 271 302 319 333 340 349 347 348 349 351 347 351 343 337 325 317 304 281 245 232 209 187 190 210 206 187 196 195 190 191 211 185 183 175
192 160 239 237 329 279 319 295 337 356 180 202 205 204 238 275 298 321 336 344 351 356 358 348 353 353 358 345 352 353 341 335 315 247 213 188 184 192 198 202 198 203 202 201 205 193 181 181 186
220 127 156 302 36 267 47 284 307 294 211 191 199 204 227 230 291 322 339 345 356 3 2 357 358 356 3 355 11 19 18 16 20 171 184 181 189 192 197 208 206 206 206 206 193 188 189 188 186
181 136 146 61 300 349 332 66 272 296 259 237 215 215 201 225 290 330 345 347 2 6 6 5 2 7 6 0 15 7 22 3 358 199 187 179 190 192 198 203 208 204 205 202 209 208 195 196 190
151 126 91 35 83 12 243 127 284 223 214 230 183 198 180 207 265 330 347 354 11 12 11 10 14 12 13 13 32 16 49 42 41 110 171 166 181 186 191 191 208 205 207 204 209 197 194 198 174
78 70 351 353 3 226 186 91 249 261 217 200 167 168 173 192 229 331 352 4 16 18 17 12 14 18 17 5 49 48 69 56 66 125 151 157 176 190 182 192 196 210 207 210 210 193 200 157 148
181 165 161 215 258 282 55 237 251 284 170 160 161 167 173 182 206 313 357 9 24 25 26 20 23 25 33 36 68 75 82 81 107 118 114 143 166 149 165 183 188 190 216 213 202 157 139 135 133
172 192 191 106 41 42 228 276 285 68 150 131 146 164 176 186 198 199 359 19 41 41 41 29 39 44 53 66 89 90 97 108 116 114 111 136 132 133 144 164 175 166 144 131 121 120 123 130 130
140 179 71 360 155 275 283 268 242 234 221 201 176 184 184 188 197 195 168 46 66 60 57 44 55 53 68 75 90 100 102 105 108 106 122 122 118 119 116 119 115 111 108 117 119 117 118 131 122
148 221 189 146 167 194 287 266 206 242 215 203 201 194 189 188 195 194 174 138 101 88 77 62 80 62 83 84 92 95 99 99 100 104 105 105 107 107 109 111 111 110 116 118 119 119 123 126 127
180 192 171 150 219 230 133 273 330 339 248 185 201 195 195 195 191 191 184 163 137 119 104 106 91 79 86 88 99 99 102 103 108 105 107 108 110 113 111 114 114 115 116 118 119 121 125 124 124